Location: Newark
(41.6500°N, 71.4833°W)
Time: 14:19:49
(UTC+00:00)

Transit 2A - Visible Passes

Search period start: 17 January 2020 00:00
Search period end: 27 January 2020 00:00
Orbit: 601 x 957 km, 66.7° (Epoch: 17 January)

Date Brightness Start Highest point End Pass type
(mag) Time Alt. Az. Time Alt. Az. Time Alt. Az.
17 Jan 6.7 11:00:45 10° NNW 11:05:20 49° ENE 11:10:19 10° SE visible
18 Jan 7.3 10:26:50 10° NNW 10:31:07 34° NE 10:35:45 10° ESE visible
19 Jan 7.8 09:53:51 14° N 09:56:51 24° NE 10:00:57 10° ESE visible
19 Jan 6.3 11:35:34 10° NW 11:40:09 46° WSW 11:45:11 10° S visible
20 Jan 8.1 09:20:55 15° NNE 09:22:32 18° NE 09:25:52 10° E visible
20 Jan 5.8 11:01:25 11° NW 11:06:05 71° WSW 11:11:20 10° SSE visible
21 Jan 8.5 08:48:02 13° NE 08:48:09 13° NE 08:50:21 10° ENE visible
21 Jan 5.9 10:28:33 19° NNW 10:31:58 79° ENE 10:37:14 10° SSE visible
22 Jan 6.5 09:55:45 31° N 09:57:49 53° ENE 10:02:56 10° SE visible
22 Jan 7.4 11:37:10 10° WNW 11:40:40 20° WSW 11:44:22 10° SSW visible
23 Jan 7.0 09:23:01 35° NE 09:23:37 37° NE 09:28:24 10° ESE visible
23 Jan 6.8 11:03:33 16° WNW 11:06:40 29° WSW 11:11:12 10° S visible
24 Jan 7.9 08:50:23 24° ENE 08:50:23 24° ENE 08:53:40 10° ESE visible
24 Jan 6.3 10:30:56 32° WNW 10:32:37 43° WSW 10:37:39 10° S visible
24 Jan 7.9 23:27:43 10° SE 23:27:46 10° SE 23:27:46 10° SE visible
25 Jan 8.8 08:17:51 13° E 08:17:51 13° E 08:18:40 10° E visible
25 Jan 5.8 09:58:23 64° WSW 09:58:33 65° WSW 10:03:50 10° SSE visible
26 Jan 7.6 00:34:30 10° SSW 00:36:05 21° SW 00:36:05 21° SW visible
26 Jan 6.6 09:25:56 47° SE 09:25:56 47° SE 09:29:48 10° SSE visible
26 Jan 7.8 11:06:30 12° W 11:07:04 12° WSW 11:08:54 10° SW visible
